Time,TemperatureF,DewpointF,PressureIn,WindDirection,WindDirectionDegrees,WindSpeedMPH,WindSpeedGustMPH,Humidity,HourlyPrecipIn,Conditions,Clouds,dailyrainin,SoftwareType,DateUTC
2013-08-30 00:02:00,58.6,46.1,30.05,SW,235,13.2,13.2,63,0.00,CLR,SCT,0.00,WeatherDisplay:10.37,2013-08-30 07:02:00,
2013-08-30 00:07:00,58.6,46.5,30.05,SW,235,13.2,13.2,64,0.00,CLR,SCT,0.00,WeatherDisplay:10.37,2013-08-30 07:07:00,
2013-08-30 00:12:00,58.5,45.9,30.05,SW,235,12.7,12.7,63,0.00,CLR,SCT,0.00,WeatherDisplay:10.37,2013-08-30 07:12:00,
2013-08-30 00:17:00,58.5,46.3,30.05,SW,235,12.7,12.7,64,0.00,CLR,SCT,0.00,WeatherDisplay:10.37,2013-08-30 07:17:00,
2013-08-30 00:22:00,58.6,46.5,30.05,SW,235,13.2,13.2,64,0.00,CLR,SCT,0.00,WeatherDisplay:10.37,2013-08-30 07:22:00,
2013-08-30 00:27:00,58.5,46.3,30.08,SW,235,12.7,12.7,64,0.00,CLR,SCT,0.00,WeatherDisplay:10.37,2013-08-30 07:27:00,
2013-08-30 00:32:00,58.5,46.3,30.08,SW,235,12.7,12.7,64,0.00,CLR,SCT,0.00,WeatherDisplay:10.37,2013-08-30 07:32:00,
2013-08-30 00:37:00,58.5,46.3,30.08,SW,235,12.7,12.7,64,0.00,CLR,SCT,0.00,WeatherDisplay:10.37,2013-08-30 07:37:00,
2013-08-30 00:42:00,58.3,46.6,30.08,SW,235,12.7,12.7,65,0.00,CLR,SCT,0.00,WeatherDisplay:10.37,2013-08-30 07:42:00,
2013-08-30 00:47:00,58.1,46.4,30.08,SW,235,12.7,12.7,65,0.00,CLR,SCT,0.00,WeatherDisplay:10.37,2013-08-30 07:47:00,
2013-08-30 00:52:00,58.1,46.8,30.08,SW,235,12.7,12.7,66,0.00,CLR,SCT,0.00,WeatherDisplay:10.37,2013-08-30 07:52:00,
2013-08-30 00:57:00,57.9,46.6,30.08,SW,235,13.2,13.2,66,0.00,CLR,SCT,0.00,WeatherDisplay:10.37,2013-08-30 07:57:00,
2013-08-30 01:02:00,57.6,47.1,30.08,SW,235,12.7,12.7,68,0.00,CLR,SCT,0.00,WeatherDisplay:10.37,2013-08-30 08:02:00,
2013-08-30 01:07:00,57.0,46.6,30.08,SW,235,12.7,12.7,68,0.00,CLR,SCT,0.00,WeatherDisplay:10.37,2013-08-30 08:07:00,
2013-08-30 01:12:00,56.8,46.8,30.08,SW,235,12.7,12.7,69,0.00,CLR,SCT,0.00,WeatherDisplay:10.37,2013-08-30 08:12:00,
2013-08-30 01:17:00,56.7,46.6,30.08,SW,235,12.7,12.7,69,0.00,CLR,SCT,0.00,WeatherDisplay:10.37,2013-08-30 08:17:00,
2013-08-30 01:22:00,56.7,47.0,30.08,SW,235,12.7,12.7,70,0.00,CLR,SCT,0.00,WeatherDisplay:10.37,2013-08-30 08:22:00,
2013-08-30 01:27:00,56.7,47.0,30.08,SW,235,12.7,12.7,70,0.00,CLR,SCT,0.00,WeatherDisplay:10.37,2013-08-30 08:27:00,
2013-08-30 01:32:00,56.7,47.0,30.08,SW,235,12.7,12.7,70,0.00,CLR,SCT,0.00,WeatherDisplay:10.37,2013-08-30 08:32:00,
2013-08-30 01:37:00,56.5,46.8,30.08,SW,235,12.7,12.7,70,0.00,CLR,SCT,0.00,WeatherDisplay:10.37,2013-08-30 08:37:00,
2013-08-30 01:42:00,56.3,47.0,30.08,SW,235,12.7,12.7,71,0.00,CLR,SCT,0.00,WeatherDisplay:10.37,2013-08-30 08:42:00,
2013-08-30 01:47:00,56.3,47.0,30.08,SW,235,12.7,12.7,71,0.00,CLR,SCT,0.00,WeatherDisplay:10.37,2013-08-30 08:47:00,
2013-08-30 01:52:00,56.1,46.8,30.08,SW,235,12.7,12.7,71,0.00,CLR,SCT,0.00,WeatherDisplay:10.37,2013-08-30 08:52:00,
2013-08-30 01:57:00,55.9,46.7,30.08,SW,235,13.2,13.2,71,0.00,CLR,SCT,0.00,WeatherDisplay:10.37,2013-08-30 08:57:00,
2013-08-30 02:02:00,55.8,46.5,30.08,SW,235,12.7,12.7,71,0.00,CLR,SCT,0.00,WeatherDisplay:10.37,2013-08-30 09:02:00,
2013-08-30 02:07:00,55.4,46.5,30.08,SW,235,12.7,12.7,72,0.00,CLR,SCT,0.00,WeatherDisplay:10.37,2013-08-30 09:07:00,
2013-08-30 02:12:00,55.2,47.4,30.08,SW,235,12.7,12.7,75,0.00,CLR,SCT,0.00,WeatherDisplay:10.37,2013-08-30 09:12:00,
2013-08-30 02:17:00,55.0,47.3,30.08,SW,235,12.7,12.7,75,0.00,CLR,SCT,0.00,WeatherDisplay:10.37,2013-08-30 09:17:00,
2013-08-30 02:22:00,55.2,47.4,30.08,SW,235,13.2,13.2,75,0.00,CLR,SCT,0.00,WeatherDisplay:10.37,2013-08-30 09:22:00,
2013-08-30 02:27:00,55.2,47.4,30.08,SW,235,13.2,13.2,75,0.00,CLR,SCT,0.00,WeatherDisplay:10.37,2013-08-30 09:27:00,
2013-08-30 02:32:00,55.0,47.3,30.08,SW,235,12.7,12.7,75,0.00,CLR,SCT,0.00,WeatherDisplay:10.37,2013-08-30 09:32:00,
2013-08-30 02:37:00,55.0,47.3,30.08,SW,235,12.7,12.7,75,0.00,CLR,SCT,0.00,WeatherDisplay:10.37,2013-08-30 09:37:00,
2013-08-30 02:42:00,55.0,46.9,30.08,SW,235,12.7,12.7,74,0.00,CLR,SCT,0.00,WeatherDisplay:10.37,2013-08-30 09:42:00,
2013-08-30 02:47:00,54.7,46.6,30.08,SW,235,12.7,12.7,74,0.00,CLR,SCT,0.00,WeatherDisplay:10.37,2013-08-30 09:47:00,
2013-08-30 02:52:00,54.5,46.4,30.08,SW,235,12.7,12.7,74,0.00,CLR,SCT,0.00,WeatherDisplay:10.37,2013-08-30 09:52:00,
2013-08-30 02:57:00,54.5,46.7,30.08,SW,235,12.7,12.7,75,0.00,CLR,SCT,0.00,WeatherDisplay:10.37,2013-08-30 09:57:00,
2013-08-30 03:02:00,54.1,46.4,30.08,SW,235,12.7,12.7,75,0.00,CLR,SCT,0.00,WeatherDisplay:10.37,2013-08-30 10:02:00,
2013-08-30 03:07:00,53.8,46.0,30.08,SW,235,12.7,12.7,75,0.00,CLR,SCT,0.00,WeatherDisplay:10.37,2013-08-30 10:07:00,
2013-08-30 03:12:00,54.0,46.6,30.08,SW,235,13.2,13.2,76,0.00,CLR,SCT,0.00,WeatherDisplay:10.37,2013-08-30 10:12:00,
2013-08-30 03:17:00,53.8,46.0,30.08,SW,235,12.7,12.7,75,0.00,CLR,SCT,0.00,WeatherDisplay:10.37,2013-08-30 10:17:00,
2013-08-30 03:22:00,53.6,45.9,30.08,SW,235,12.7,12.7,75,0.00,CLR,SCT,0.00,WeatherDisplay:10.37,2013-08-30 10:22:00,
2013-08-30 03:27:00,53.4,46.0,30.08,SW,235,12.7,12.7,76,0.00,CLR,SCT,0.00,WeatherDisplay:10.37,2013-08-30 10:27:00,
2013-08-30 03:32:00,53.4,46.4,30.08,SW,235,12.7,12.7,77,0.00,CLR,SCT,0.00,WeatherDisplay:10.37,2013-08-30 10:32:00,
2013-08-30 03:37:00,53.4,46.4,30.08,SW,235,13.2,13.2,77,0.00,CLR,SCT,0.00,WeatherDisplay:10.37,2013-08-30 10:37:00,
2013-08-30 03:42:00,53.2,46.2,30.08,SW,235,12.7,12.7,77,0.00,CLR,SCT,0.00,WeatherDisplay:10.37,2013-08-30 10:42:00,
2013-08-30 03:47:00,53.1,46.0,30.08,SW,235,13.2,13.2,77,0.00,CLR,SCT,0.00,WeatherDisplay:10.37,2013-08-30 10:47:00,
2013-08-30 03:52:00,52.9,45.9,30.08,SW,235,13.2,13.2,77,0.00,CLR,SCT,0.00,WeatherDisplay:10.37,2013-08-30 10:52:00,
2013-08-30 03:57:00,52.5,46.2,30.08,SW,235,12.7,12.7,79,0.00,CLR,SCT,0.00,WeatherDisplay:10.37,2013-08-30 10:57:00,
2013-08-30 04:02:00,52.2,45.8,30.08,SW,235,13.2,13.2,79,0.00,CLR,SCT,0.00,WeatherDisplay:10.37,2013-08-30 11:02:00,
2013-08-30 04:07:00,52.2,45.8,30.08,SW,235,12.7,12.7,79,0.00,CLR,SCT,0.00,WeatherDisplay:10.37,2013-08-30 11:07:00,
2013-08-30 04:12:00,52.0,45.7,30.08,SW,235,13.2,13.2,79,0.00,CLR,SCT,0.00,WeatherDisplay:10.37,2013-08-30 11:12:00,
2013-08-30 04:17:00,52.0,46.0,30.08,SW,235,12.7,12.7,80,0.00,CLR,SCT,0.00,WeatherDisplay:10.37,2013-08-30 11:17:00,
2013-08-30 04:22:00,51.8,45.8,30.08,SW,235,12.7,12.7,80,0.00,CLR,SCT,0.00,WeatherDisplay:10.37,2013-08-30 11:22:00,
2013-08-30 04:27:00,51.6,46.0,30.08,SW,235,13.2,13.2,81,0.00,CLR,SCT,0.00,WeatherDisplay:10.37,2013-08-30 11:27:00,
2013-08-30 04:32:00,51.6,46.3,30.08,SW,235,12.7,12.7,82,0.00,CLR,SCT,0.00,WeatherDisplay:10.37,2013-08-30 11:32:00,
2013-08-30 04:38:00,51.4,46.1,30.08,SW,235,12.7,12.7,82,0.00,CLR,SCT,0.00,WeatherDisplay:10.37,2013-08-30 11:38:00,
2013-08-30 04:43:00,51.6,46.3,30.08,SW,235,12.7,12.7,82,0.00,CLR,SCT,0.00,WeatherDisplay:10.37,2013-08-30 11:43:00,
2013-08-30 04:48:00,51.6,46.6,30.08,SW,235,13.2,13.2,83,0.00,CLR,SCT,0.00,WeatherDisplay:10.37,2013-08-30 11:48:00,
2013-08-30 04:53:00,51.4,46.1,30.11,SW,235,13.2,13.2,82,0.00,CLR,SCT,0.00,WeatherDisplay:10.37,2013-08-30 11:53:00,
2013-08-30 04:58:00,51.6,46.6,30.11,SW,235,12.7,12.7,83,0.00,CLR,SCT,0.00,WeatherDisplay:10.37,2013-08-30 11:58:00,
2013-08-30 05:03:00,51.6,46.6,30.11,SW,235,12.7,12.7,83,0.00,CLR,SCT,0.00,WeatherDisplay:10.37,2013-08-30 12:03:00,
2013-08-30 05:08:00,51.6,46.9,30.11,SW,235,12.7,12.7,84,0.00,CLR,SCT,0.00,WeatherDisplay:10.37,2013-08-30 12:08:00,
2013-08-30 05:13:00,51.8,47.1,30.11,SW,235,13.2,13.2,84,0.00,CLR,SCT,0.00,WeatherDisplay:10.37,2013-08-30 12:13:00,
2013-08-30 05:18:00,52.0,47.3,30.11,SW,235,12.7,12.7,84,0.00,CLR,SCT,0.00,WeatherDisplay:10.37,2013-08-30 12:18:00,
2013-08-30 05:23:00,51.8,46.8,30.11,SW,235,13.2,13.2,83,0.00,CLR,SCT,0.00,WeatherDisplay:10.37,2013-08-30 12:23:00,
2013-08-30 05:28:00,51.6,46.6,30.11,SW,235,12.7,12.7,83,0.00,CLR,SCT,0.00,WeatherDisplay:10.37,2013-08-30 12:28:00,
2013-08-30 05:33:00,51.6,46.6,30.11,SW,235,12.7,12.7,83,0.00,CLR,SCT,0.00,WeatherDisplay:10.37,2013-08-30 12:33:00,
2013-08-30 05:38:00,51.6,46.9,30.11,SW,235,12.7,12.7,84,0.00,CLR,SCT,0.00,WeatherDisplay:10.37,2013-08-30 12:38:00,
2013-08-30 05:43:00,51.6,46.9,30.11,SW,235,12.7,12.7,84,0.00,CLR,SCT,0.00,WeatherDisplay:10.37,2013-08-30 12:43:00,
2013-08-30 05:48:00,51.4,46.8,30.11,SW,235,12.7,12.7,84,0.00,CLR,SCT,0.00,WeatherDisplay:10.37,2013-08-30 12:48:00,
2013-08-30 05:53:00,51.3,46.3,30.08,SW,235,13.2,13.2,83,0.00,CLR,SCT,0.00,WeatherDisplay:10.37,2013-08-30 12:53:00,
2013-08-30 05:58:00,50.9,45.9,30.08,SW,235,12.7,12.7,83,0.00,CLR,SCT,0.00,WeatherDisplay:10.37,2013-08-30 12:58:00,
2013-08-30 06:03:00,50.5,45.6,30.08,SW,235,12.7,12.7,83,0.00,CLR,SCT,0.00,WeatherDisplay:10.37,2013-08-30 13:03:00,
2013-08-30 06:08:00,50.4,45.7,30.11,SW,235,13.2,13.2,84,0.00,CLR,SCT,0.00,WeatherDisplay:10.37,2013-08-30 13:08:00,
2013-08-30 06:13:00,50.2,45.5,30.11,SW,235,12.7,12.7,84,0.00,CLR,SCT,0.00,WeatherDisplay:10.37,2013-08-30 13:13:00,
2013-08-30 06:18:00,50.2,45.5,30.11,SW,235,12.7,12.7,84,0.00,CLR,SCT,0.00,WeatherDisplay:10.37,2013-08-30 13:18:00,
2013-08-30 06:23:00,50.0,45.4,30.11,SW,235,12.7,12.7,84,0.00,CLR,SCT,0.00,WeatherDisplay:10.37,2013-08-30 13:23:00,
2013-08-30 06:28:00,50.0,45.7,30.11,SW,235,12.7,12.7,85,0.00,CLR,SCT,0.00,WeatherDisplay:10.37,2013-08-30 13:28:00,
2013-08-30 06:33:00,50.0,45.7,30.11,SW,235,12.7,12.7,85,0.00,CLR,SCT,0.00,WeatherDisplay:10.37,2013-08-30 13:33:00,
2013-08-30 06:38:00,49.8,45.5,30.11,SW,235,12.7,12.7,85,0.00,CLR,SCT,0.00,WeatherDisplay:10.37,2013-08-30 13:38:00,
2013-08-30 06:43:00,49.8,45.8,30.11,SW,235,13.2,13.2,86,0.00,CLR,SCT,0.00,WeatherDisplay:10.37,2013-08-30 13:43:00,
2013-08-30 06:48:00,50.0,46.3,30.11,SW,235,13.2,13.2,87,0.00,CLR,SCT,0.00,WeatherDisplay:10.37,2013-08-30 13:48:00,
2013-08-30 06:53:00,50.2,47.4,30.11,SW,235,12.7,12.7,90,0.00,CLR,SCT,0.00,WeatherDisplay:10.37,2013-08-30 13:53:00,
2013-08-30 06:58:00,50.4,47.5,30.11,SW,235,12.7,12.7,90,0.00,CLR,SCT,0.00,WeatherDisplay:10.37,2013-08-30 13:58:00,
2013-08-30 07:03:00,50.5,47.7,30.11,SW,235,12.7,12.7,90,0.00,CLR,SCT,0.00,WeatherDisplay:10.37,2013-08-30 14:03:00,
2013-08-30 07:08:00,50.9,48.1,30.14,SW,235,12.7,12.7,90,0.00,CLR,SCT,0.00,WeatherDisplay:10.37,2013-08-30 14:08:00,
2013-08-30 07:13:00,51.3,48.7,30.14,SW,235,12.7,12.7,91,0.00,CLR,SCT,0.00,WeatherDisplay:10.37,2013-08-30 14:13:00,
2013-08-30 07:18:00,51.8,49.3,30.14,SW,235,12.7,12.7,91,0.00,CLR,SCT,0.00,WeatherDisplay:10.37,2013-08-30 14:18:00,
2013-08-30 07:23:00,52.7,50.1,30.14,SW,235,12.7,12.7,91,0.00,CLR,SCT,0.00,WeatherDisplay:10.37,2013-08-30 14:23:00,
2013-08-30 07:28:00,53.6,51.0,30.14,SW,235,12.7,12.7,91,0.00,CLR,SCT,0.00,WeatherDisplay:10.37,2013-08-30 14:28:00,
2013-08-30 07:33:00,54.3,51.4,30.14,SW,235,13.2,13.2,90,0.00,CLR,SCT,0.00,WeatherDisplay:10.37,2013-08-30 14:33:00,
2013-08-30 07:38:00,55.0,51.9,30.14,SW,235,12.7,12.7,89,0.00,CLR,SCT,0.00,WeatherDisplay:10.37,2013-08-30 14:38:00,
2013-08-30 07:43:00,55.9,51.8,30.14,SW,235,12.7,12.7,86,0.00,CLR,SCT,0.00,WeatherDisplay:10.37,2013-08-30 14:43:00,
2013-08-30 07:48:00,56.3,47.4,30.14,SW,235,12.7,12.7,72,0.00,CLR,SCT,0.00,WeatherDisplay:10.37,2013-08-30 14:48:00,
2013-08-30 07:53:00,57.2,48.3,30.14,SW,235,12.7,12.7,72,0.00,CLR,SCT,0.00,WeatherDisplay:10.37,2013-08-30 14:53:00,
2013-08-30 07:58:00,57.6,47.8,30.14,SW,235,13.2,13.2,70,0.00,CLR,SCT,0.00,WeatherDisplay:10.37,2013-08-30 14:58:00,
2013-08-30 08:03:00,58.5,48.3,30.14,SW,235,13.2,13.2,69,0.00,CLR,SCT,0.00,WeatherDisplay:10.37,2013-08-30 15:03:00,
2013-08-30 08:08:00,59.2,47.8,30.14,SW,235,12.7,12.7,66,0.00,CLR,SCT,0.00,WeatherDisplay:10.37,2013-08-30 15:08:00,
2013-08-30 08:13:00,60.1,47.4,30.14,SW,235,12.7,12.7,63,0.00,CLR,SCT,0.00,WeatherDisplay:10.37,2013-08-30 15:13:00,
2013-08-30 08:18:00,61.2,45.3,30.14,SW,235,12.7,12.7,56,0.00,CLR,SCT,0.00,WeatherDisplay:10.37,2013-08-30 15:18:00,
2013-08-30 08:23:00,62.1,44.7,30.14,SW,235,13.2,13.2,53,0.00,CLR,SCT,0.00,WeatherDisplay:10.37,2013-08-30 15:23:00,
2013-08-30 08:28:00,63.0,44.0,30.14,SW,235,12.7,12.7,50,0.00,CLR,SCT,0.00,WeatherDisplay:10.37,2013-08-30 15:28:00,
2013-08-30 08:33:00,63.7,44.2,30.14,SW,235,12.7,12.7,49,0.00,CLR,SCT,0.00,WeatherDisplay:10.37,2013-08-30 15:33:00,
2013-08-30 08:38:00,64.4,43.2,30.14,SW,235,12.7,12.7,46,0.00,CLR,SCT,0.00,WeatherDisplay:10.37,2013-08-30 15:38:00,
2013-08-30 08:43:00,64.9,43.1,30.14,SW,235,12.7,12.7,45,0.00,CLR,SCT,0.00,WeatherDisplay:10.37,2013-08-30 15:43:00,
2013-08-30 08:48:00,65.8,43.9,30.14,SW,235,13.2,13.2,45,0.00,CLR,SCT,0.00,WeatherDisplay:10.37,2013-08-30 15:48:00,
2013-08-30 08:53:00,66.7,43.5,30.14,SW,235,12.7,12.7,43,0.00,CLR,SCT,0.00,WeatherDisplay:10.37,2013-08-30 15:53:00,
2013-08-30 08:58:00,67.3,43.4,30.14,SW,235,12.7,12.7,42,0.00,CLR,SCT,0.00,WeatherDisplay:10.37,2013-08-30 15:58:00,
2013-08-30 09:03:00,67.8,43.9,30.14,SW,235,12.7,12.7,42,0.00,CLR,SCT,0.00,WeatherDisplay:10.37,2013-08-30 16:03:00,
2013-08-30 09:09:00,68.5,42.6,30.14,SW,235,12.7,12.7,39,0.00,CLR,SCT,0.00,WeatherDisplay:10.37,2013-08-30 16:09:00,
2013-08-30 09:14:00,68.9,42.2,30.14,SW,235,12.7,12.7,38,0.00,CLR,SCT,0.00,WeatherDisplay:10.37,2013-08-30 16:14:00,
2013-08-30 09:19:00,69.3,42.6,30.14,SW,235,12.7,12.7,38,0.00,CLR,SCT,0.00,WeatherDisplay:10.37,2013-08-30 16:19:00,
2013-08-30 09:24:00,69.8,43.0,30.14,SW,235,13.2,13.2,38,0.00,CLR,SCT,0.00,WeatherDisplay:10.37,2013-08-30 16:24:00,
2013-08-30 09:29:00,70.7,42.4,30.14,SW,235,12.7,12.7,36,0.00,CLR,SCT,0.00,WeatherDisplay:10.37,2013-08-30 16:29:00,
2013-08-30 09:34:00,71.8,42.6,30.14,SW,235,13.2,13.2,35,0.00,CLR,SCT,0.00,WeatherDisplay:10.37,2013-08-30 16:34:00,
2013-08-30 09:39:00,72.0,42.8,30.14,SW,235,12.7,12.7,35,0.00,CLR,SCT,0.00,WeatherDisplay:10.37,2013-08-30 16:39:00,
2013-08-30 09:44:00,72.3,43.1,30.14,SW,235,12.7,12.7,35,0.00,CLR,SCT,0.00,WeatherDisplay:10.37,2013-08-30 16:44:00,
2013-08-30 09:49:00,72.7,43.4,30.14,SW,235,12.7,12.7,35,0.00,CLR,SCT,0.00,WeatherDisplay:10.37,2013-08-30 16:49:00,
2013-08-30 09:54:00,72.5,42.5,30.11,SW,235,12.7,12.7,34,0.00,CLR,SCT,0.00,WeatherDisplay:10.37,2013-08-30 16:54:00,
2013-08-30 09:59:00,73.0,43.0,30.11,SW,235,13.2,13.2,34,0.00,CLR,SCT,0.00,WeatherDisplay:10.37,2013-08-30 16:59:00,
2013-08-30 10:04:00,73.6,43.5,30.11,SW,235,12.7,12.7,34,0.00,CLR,SCT,0.00,WeatherDisplay:10.37,2013-08-30 17:04:00,
2013-08-30 10:09:00,74.3,43.3,30.11,SW,235,13.2,13.2,33,0.00,CLR,SCT,0.00,WeatherDisplay:10.37,2013-08-30 17:09:00,
2013-08-30 10:14:00,74.8,43.8,30.11,SW,235,13.2,13.2,33,0.00,CLR,SCT,0.00,WeatherDisplay:10.37,2013-08-30 17:14:00,
2013-08-30 10:19:00,75.4,44.3,30.11,SW,235,12.7,12.7,33,0.00,CLR,SCT,0.00,WeatherDisplay:10.37,2013-08-30 17:19:00,
2013-08-30 10:24:00,74.8,43.8,30.11,SW,235,12.7,12.7,33,0.00,CLR,SCT,0.00,WeatherDisplay:10.37,2013-08-30 17:24:00,
2013-08-30 10:29:00,75.0,44.0,30.11,SW,235,12.7,12.7,33,0.00,CLR,SCT,0.00,WeatherDisplay:10.37,2013-08-30 17:29:00,
2013-08-30 10:34:00,76.3,44.2,30.11,SW,235,12.7,12.7,32,0.00,CLR,SCT,0.00,WeatherDisplay:10.37,2013-08-30 17:34:00,
2013-08-30 10:39:00,76.3,44.2,30.11,SW,235,13.2,13.2,32,0.00,CLR,SCT,0.00,WeatherDisplay:10.37,2013-08-30 17:39:00,
2013-08-30 10:44:00,75.9,43.9,30.11,SW,235,12.7,12.7,32,0.00,CLR,SCT,0.00,WeatherDisplay:10.37,2013-08-30 17:44:00,
2013-08-30 10:49:00,76.5,44.4,30.11,SW,235,12.7,12.7,32,0.00,CLR,SCT,0.00,WeatherDisplay:10.37,2013-08-30 17:49:00,
2013-08-30 10:54:00,78.1,45.0,30.11,SW,235,12.7,12.7,31,0.00,CLR,SCT,0.00,WeatherDisplay:10.37,2013-08-30 17:54:00,
2013-08-30 10:59:00,78.4,45.3,30.11,SW,235,12.7,12.7,31,0.00,CLR,SCT,0.00,WeatherDisplay:10.37,2013-08-30 17:59:00,
2013-08-30 11:04:00,79.3,46.1,30.11,SW,235,12.7,12.7,31,0.00,CLR,SCT,0.00,WeatherDisplay:10.37,2013-08-30 18:04:00,
2013-08-30 11:09:00,80.2,46.9,30.11,SW,235,12.7,12.7,31,0.00,CLR,SCT,0.00,WeatherDisplay:10.37,2013-08-30 18:09:00,
2013-08-30 11:14:00,79.7,46.4,30.11,SW,235,12.7,12.7,31,0.00,CLR,SCT,0.00,WeatherDisplay:10.37,2013-08-30 18:14:00,
2013-08-30 11:19:00,80.1,46.7,30.11,SW,235,13.2,13.2,31,0.00,CLR,SCT,0.00,WeatherDisplay:10.37,2013-08-30 18:19:00,
2013-08-30 11:24:00,80.1,46.7,30.11,SW,235,13.2,13.2,31,0.00,CLR,SCT,0.00,WeatherDisplay:10.37,2013-08-30 18:24:00,
2013-08-30 11:29:00,80.1,46.7,30.11,SW,235,13.2,13.2,31,0.00,CLR,SCT,0.00,WeatherDisplay:10.37,2013-08-30 18:29:00,
2013-08-30 11:34:00,80.8,46.4,30.11,SW,235,13.2,13.2,30,0.00,CLR,SCT,0.00,WeatherDisplay:10.37,2013-08-30 18:34:00,
2013-08-30 11:39:00,81.1,46.8,30.08,SW,235,12.7,12.7,30,0.00,CLR,SCT,0.00,WeatherDisplay:10.37,2013-08-30 18:39:00,
2013-08-30 11:44:00,81.9,47.4,30.08,SW,235,12.7,12.7,30,0.00,CLR,SCT,0.00,WeatherDisplay:10.37,2013-08-30 18:44:00,
2013-08-30 11:49:00,82.6,48.0,30.08,SW,235,12.7,12.7,30,0.00,CLR,SCT,0.00,WeatherDisplay:10.37,2013-08-30 18:49:00,
2013-08-30 11:54:00,83.3,48.6,30.11,SW,235,13.2,13.2,30,0.00,CLR,SCT,0.00,WeatherDisplay:10.37,2013-08-30 18:54:00,
2013-08-30 11:59:00,83.5,48.8,30.11,SW,235,12.7,12.7,30,0.00,CLR,SCT,0.00,WeatherDisplay:10.37,2013-08-30 18:59:00,
2013-08-30 12:04:00,83.8,49.1,30.11,SW,235,12.7,12.7,30,0.00,CLR,SCT,0.00,WeatherDisplay:10.37,2013-08-30 19:04:00,
2013-08-30 12:09:00,84.4,48.6,30.11,SW,235,12.7,12.7,29,0.00,CLR,SCT,0.00,WeatherDisplay:10.37,2013-08-30 19:09:00,
2013-08-30 12:14:00,84.9,49.1,30.11,SW,235,12.7,12.7,29,0.00,CLR,SCT,0.00,WeatherDisplay:10.37,2013-08-30 19:14:00,
2013-08-30 12:19:00,86.2,50.2,30.11,SW,235,12.7,12.7,29,0.00,CLR,SCT,0.00,WeatherDisplay:10.37,2013-08-30 19:19:00,
2013-08-30 12:24:00,86.2,50.2,30.08,SW,235,12.7,12.7,29,0.00,CLR,SCT,0.00,WeatherDisplay:10.37,2013-08-30 19:24:00,
2013-08-30 12:29:00,85.3,49.4,30.08,SW,235,13.2,13.2,29,0.00,CLR,SCT,0.00,WeatherDisplay:10.37,2013-08-30 19:29:00,
2013-08-30 12:34:00,85.6,49.7,30.08,SW,235,12.7,12.7,29,0.00,CLR,SCT,0.00,WeatherDisplay:10.37,2013-08-30 19:34:00,
2013-08-30 12:39:00,86.4,50.3,30.08,SW,235,12.7,12.7,29,0.00,CLR,SCT,0.00,WeatherDisplay:10.37,2013-08-30 19:39:00,
2013-08-30 12:44:00,86.2,50.2,30.08,SW,235,12.7,12.7,29,0.00,CLR,SCT,0.00,WeatherDisplay:10.37,2013-08-30 19:44:00,
2013-08-30 12:49:00,86.2,50.2,30.08,SW,235,12.7,12.7,29,0.00,CLR,SCT,0.00,WeatherDisplay:10.37,2013-08-30 19:49:00,
2013-08-30 12:54:00,86.5,50.5,30.08,SW,235,12.7,12.7,29,0.00,CLR,SCT,0.00,WeatherDisplay:10.37,2013-08-30 19:54:00,
2013-08-30 12:59:00,86.4,50.3,30.08,SW,235,12.7,12.7,29,0.00,CLR,SCT,0.00,WeatherDisplay:10.37,2013-08-30 19:59:00,
2013-08-30 13:04:00,86.0,50.0,30.08,SW,235,13.2,13.2,29,0.00,CLR,SCT,0.00,WeatherDisplay:10.37,2013-08-30 20:04:00,
2013-08-30 13:09:00,86.5,50.5,30.08,SW,235,12.7,12.7,29,0.00,CLR,SCT,0.00,WeatherDisplay:10.37,2013-08-30 20:09:00,
2013-08-30 13:14:00,87.1,51.0,30.08,SW,235,12.7,12.7,29,0.00,CLR,SCT,0.00,WeatherDisplay:10.37,2013-08-30 20:14:00,
2013-08-30 13:19:00,87.1,51.0,30.08,SW,235,12.7,12.7,29,0.00,CLR,SCT,0.00,WeatherDisplay:10.37,2013-08-30 20:19:00,
2013-08-30 13:24:00,86.5,50.5,30.08,SW,235,12.7,12.7,29,0.00,CLR,SCT,0.00,WeatherDisplay:10.37,2013-08-30 20:24:00,
2013-08-30 13:29:00,86.4,50.3,30.08,SW,235,12.7,12.7,29,0.00,CLR,SCT,0.00,WeatherDisplay:10.37,2013-08-30 20:29:00,
2013-08-30 13:34:00,86.9,50.8,30.08,SW,235,12.7,12.7,29,0.00,CLR,SCT,0.00,WeatherDisplay:10.37,2013-08-30 20:34:00,
2013-08-30 13:39:00,87.3,51.1,30.05,SW,235,12.7,12.7,29,0.00,CLR,SCT,0.00,WeatherDisplay:10.37,2013-08-30 20:39:00,
2013-08-30 13:44:00,86.9,50.8,30.05,SW,235,13.2,13.2,29,0.00,CLR,SCT,0.00,WeatherDisplay:10.37,2013-08-30 20:44:00,
2013-08-30 13:49:00,86.7,50.7,30.05,SW,235,12.7,12.7,29,0.00,CLR,SCT,0.00,WeatherDisplay:10.37,2013-08-30 20:49:00,
2013-08-30 13:54:00,86.5,50.5,30.05,SW,235,12.7,12.7,29,0.00,CLR,SCT,0.00,WeatherDisplay:10.37,2013-08-30 20:54:00,
2013-08-30 13:59:00,86.4,50.3,30.05,SW,235,12.7,12.7,29,0.00,CLR,SCT,0.00,WeatherDisplay:10.37,2013-08-30 20:59:00,
2013-08-30 14:04:00,86.5,50.5,30.05,SW,235,12.7,12.7,29,0.00,CLR,SCT,0.00,WeatherDisplay:10.37,2013-08-30 21:04:00,
2013-08-30 14:09:00,87.1,51.0,30.05,SW,235,13.2,13.2,29,0.00,CLR,SCT,0.00,WeatherDisplay:10.37,2013-08-30 21:09:00,
2013-08-30 14:14:00,87.1,51.0,30.05,SW,235,13.2,13.2,29,0.00,CLR,SCT,0.00,WeatherDisplay:10.37,2013-08-30 21:14:00,
2013-08-30 14:19:00,87.1,51.0,30.05,SW,235,12.7,12.7,29,0.00,CLR,SCT,0.00,WeatherDisplay:10.37,2013-08-30 21:19:00,
2013-08-30 14:24:00,87.1,51.0,30.05,SW,235,13.2,13.2,29,0.00,CLR,SCT,0.00,WeatherDisplay:10.37,2013-08-30 21:24:00,
2013-08-30 14:30:00,87.3,51.1,30.05,SW,235,12.7,12.7,29,0.00,CLR,SCT,0.00,WeatherDisplay:10.37,2013-08-30 21:30:00,
2013-08-30 14:35:00,87.1,51.0,30.05,SW,235,13.2,13.2,29,0.00,CLR,SCT,0.00,WeatherDisplay:10.37,2013-08-30 21:35:00,
2013-08-30 14:40:00,86.9,50.8,30.05,SW,235,12.7,12.7,29,0.00,CLR,SCT,0.00,WeatherDisplay:10.37,2013-08-30 21:40:00,
2013-08-30 14:45:00,87.6,51.4,30.05,SW,235,12.7,12.7,29,0.00,CLR,SCT,0.00,WeatherDisplay:10.37,2013-08-30 21:45:00,
2013-08-30 14:50:00,87.1,51.0,30.05,SW,235,12.7,12.7,29,0.00,CLR,SCT,0.00,WeatherDisplay:10.37,2013-08-30 21:50:00,
2013-08-30 14:55:00,87.3,51.1,30.05,SW,235,12.7,12.7,29,0.00,CLR,SCT,0.00,WeatherDisplay:10.37,2013-08-30 21:55:00,
2013-08-30 15:00:00,87.3,51.1,30.05,SW,235,13.2,13.2,29,0.00,CLR,SCT,0.00,WeatherDisplay:10.37,2013-08-30 22:00:00,
2013-08-30 15:05:00,87.3,51.1,30.05,SW,235,12.7,12.7,29,0.00,CLR,SCT,0.00,WeatherDisplay:10.37,2013-08-30 22:05:00,
2013-08-30 15:10:00,87.6,51.4,30.02,SW,235,13.2,13.2,29,0.00,CLR,SCT,0.00,WeatherDisplay:10.37,2013-08-30 22:10:00,
2013-08-30 15:15:00,87.6,51.4,30.02,SW,235,12.7,12.7,29,0.00,CLR,SCT,0.00,WeatherDisplay:10.37,2013-08-30 22:15:00,
2013-08-30 15:20:00,87.6,51.4,30.02,SW,235,12.7,12.7,29,0.00,CLR,SCT,0.00,WeatherDisplay:10.37,2013-08-30 22:20:00,
2013-08-30 15:25:00,87.8,50.6,30.02,SW,235,13.2,13.2,28,0.00,CLR,SCT,0.00,WeatherDisplay:10.37,2013-08-30 22:25:00,
2013-08-30 15:30:00,88.0,50.8,30.02,SW,235,12.7,12.7,28,0.00,CLR,SCT,0.00,WeatherDisplay:10.37,2013-08-30 22:30:00,
2013-08-30 15:35:00,88.0,50.8,30.02,SW,235,12.7,12.7,28,0.00,CLR,SCT,0.00,WeatherDisplay:10.37,2013-08-30 22:35:00,
2013-08-30 15:40:00,88.9,51.6,30.02,SW,235,12.7,12.7,28,0.00,CLR,SCT,0.00,WeatherDisplay:10.37,2013-08-30 22:40:00,
2013-08-30 15:45:00,88.5,51.3,30.02,SW,235,13.2,13.2,28,0.00,CLR,SCT,0.00,WeatherDisplay:10.37,2013-08-30 22:45:00,
2013-08-30 15:50:00,88.3,51.1,30.02,SW,235,12.7,12.7,28,0.00,CLR,SCT,0.00,WeatherDisplay:10.37,2013-08-30 22:50:00,
2013-08-30 15:55:00,88.5,51.3,30.02,SW,235,12.7,12.7,28,0.00,CLR,SCT,0.00,WeatherDisplay:10.37,2013-08-30 22:55:00,
2013-08-30 16:00:00,88.3,51.1,30.02,SW,235,12.7,12.7,28,0.00,CLR,SCT,0.00,WeatherDisplay:10.37,2013-08-30 23:00:00,
2013-08-30 16:05:00,87.6,51.4,30.02,SW,235,12.7,12.7,29,0.00,CLR,SCT,0.00,WeatherDisplay:10.37,2013-08-30 23:05:00,
2013-08-30 16:10:00,87.4,51.3,30.02,SW,235,12.7,12.7,29,0.00,CLR,SCT,0.00,WeatherDisplay:10.37,2013-08-30 23:10:00,
2013-08-30 16:15:00,87.6,51.4,30.02,SW,235,13.2,13.2,29,0.00,CLR,SCT,0.00,WeatherDisplay:10.37,2013-08-30 23:15:00,
2013-08-30 16:20:00,87.4,51.3,30.02,SW,235,13.2,13.2,29,0.00,CLR,SCT,0.00,WeatherDisplay:10.37,2013-08-30 23:20:00,
2013-08-30 16:25:00,87.1,51.0,30.02,SW,235,12.7,12.7,29,0.00,CLR,SCT,0.00,WeatherDisplay:10.37,2013-08-30 23:25:00,
2013-08-30 16:30:00,87.1,51.0,30.02,SW,235,12.7,12.7,29,0.00,CLR,SCT,0.00,WeatherDisplay:10.37,2013-08-30 23:30:00,
2013-08-30 16:35:00,87.1,51.0,30.02,SW,235,13.2,13.2,29,0.00,CLR,SCT,0.00,WeatherDisplay:10.37,2013-08-30 23:35:00,
2013-08-30 16:40:00,87.3,51.1,30.02,SW,235,12.7,12.7,29,0.00,CLR,SCT,0.00,WeatherDisplay:10.37,2013-08-30 23:40:00,
2013-08-30 16:45:00,86.9,50.8,30.02,SW,235,12.7,12.7,29,0.00,CLR,SCT,0.00,WeatherDisplay:10.37,2013-08-30 23:45:00,
2013-08-30 16:50:00,86.7,50.7,30.02,SW,235,13.2,13.2,29,0.00,CLR,SCT,0.00,WeatherDisplay:10.37,2013-08-30 23:50:00,
2013-08-30 16:55:00,86.4,50.3,30.02,SW,235,12.7,12.7,29,0.00,CLR,SCT,0.00,WeatherDisplay:10.37,2013-08-30 23:55:00,
2013-08-30 17:00:00,86.2,50.2,30.02,SW,235,13.2,13.2,29,0.00,CLR,SCT,0.00,WeatherDisplay:10.37,2013-08-31 00:00:00,
2013-08-30 17:05:00,86.4,50.3,30.02,SW,235,13.2,13.2,29,0.00,CLR,SCT,0.00,WeatherDisplay:10.37,2013-08-31 00:05:00,
2013-08-30 17:10:00,86.5,50.5,29.99,SW,235,13.2,13.2,29,0.00,CLR,SCT,0.00,WeatherDisplay:10.37,2013-08-31 00:10:00,
2013-08-30 17:15:00,86.4,50.3,29.99,SW,235,12.7,12.7,29,0.00,CLR,SCT,0.00,WeatherDisplay:10.37,2013-08-31 00:15:00,
2013-08-30 17:20:00,86.4,50.3,29.99,SW,235,13.2,13.2,29,0.00,CLR,SCT,0.00,WeatherDisplay:10.37,2013-08-31 00:20:00,
2013-08-30 17:25:00,86.2,50.2,29.99,SW,235,13.2,13.2,29,0.00,CLR,SCT,0.00,WeatherDisplay:10.37,2013-08-31 00:25:00,
2013-08-30 17:30:00,86.0,50.0,29.99,SW,235,12.7,12.7,29,0.00,CLR,SCT,0.00,WeatherDisplay:10.37,2013-08-31 00:30:00,
2013-08-30 17:35:00,85.8,49.9,29.99,SW,235,12.7,12.7,29,0.00,CLR,SCT,0.00,WeatherDisplay:10.37,2013-08-31 00:35:00,
2013-08-30 17:40:00,85.6,49.7,29.99,SW,235,12.7,12.7,29,0.00,CLR,SCT,0.00,WeatherDisplay:10.37,2013-08-31 00:40:00,
2013-08-30 17:45:00,85.1,49.3,29.99,SW,235,13.2,13.2,29,0.00,CLR,SCT,0.00,WeatherDisplay:10.37,2013-08-31 00:45:00,
2013-08-30 17:50:00,84.6,48.8,29.99,SW,235,12.7,12.7,29,0.00,CLR,SCT,0.00,WeatherDisplay:10.37,2013-08-31 00:50:00,
2013-08-30 17:55:00,84.6,48.8,29.99,SW,235,12.7,12.7,29,0.00,CLR,SCT,0.00,WeatherDisplay:10.37,2013-08-31 00:55:00,
2013-08-30 18:00:00,84.6,48.8,29.99,SW,235,12.7,12.7,29,0.00,CLR,SCT,0.00,WeatherDisplay:10.37,2013-08-31 01:00:00,
2013-08-30 18:05:00,84.6,48.8,29.99,SW,235,12.7,12.7,29,0.00,CLR,SCT,0.00,WeatherDisplay:10.37,2013-08-31 01:05:00,
2013-08-30 18:10:00,84.2,48.5,29.99,SW,235,13.2,13.2,29,0.00,CLR,SCT,0.00,WeatherDisplay:10.37,2013-08-31 01:10:00,
2013-08-30 18:15:00,83.7,48.0,29.99,SW,235,13.2,13.2,29,0.00,CLR,SCT,0.00,WeatherDisplay:10.37,2013-08-31 01:15:00,
2013-08-30 18:20:00,82.6,47.1,29.99,SW,235,13.2,13.2,29,0.00,CLR,SCT,0.00,WeatherDisplay:10.37,2013-08-31 01:20:00,
2013-08-30 18:25:00,82.2,47.7,29.99,SW,235,12.7,12.7,30,0.00,CLR,SCT,0.00,WeatherDisplay:10.37,2013-08-31 01:25:00,
2013-08-30 18:30:00,81.7,47.2,29.99,SW,235,12.7,12.7,30,0.00,CLR,SCT,0.00,WeatherDisplay:10.37,2013-08-31 01:30:00,
2013-08-30 18:35:00,81.1,46.8,29.99,SW,235,13.2,13.2,30,0.00,CLR,SCT,0.00,WeatherDisplay:10.37,2013-08-31 01:35:00,
2013-08-30 18:40:00,80.8,46.4,29.99,SW,235,12.7,12.7,30,0.00,CLR,SCT,0.00,WeatherDisplay:10.37,2013-08-31 01:40:00,
2013-08-30 18:45:00,80.4,46.1,29.99,SW,235,12.7,12.7,30,0.00,CLR,SCT,0.00,WeatherDisplay:10.37,2013-08-31 01:45:00,
2013-08-30 18:50:00,79.9,45.7,29.99,SW,235,12.7,12.7,30,0.00,CLR,SCT,0.00,WeatherDisplay:10.37,2013-08-31 01:50:00,
2013-08-30 18:55:00,79.5,45.4,29.99,SW,235,13.2,13.2,30,0.00,CLR,SCT,0.00,WeatherDisplay:10.37,2013-08-31 01:55:00,
2013-08-30 19:00:00,79.0,44.9,29.99,SW,235,13.2,13.2,30,0.00,CLR,SCT,0.00,WeatherDisplay:10.37,2013-08-31 02:00:00,
2013-08-30 19:05:00,78.4,45.3,29.99,SW,235,12.7,12.7,31,0.00,CLR,SCT,0.00,WeatherDisplay:10.37,2013-08-31 02:05:00,
2013-08-30 19:10:00,78.1,45.0,29.99,SW,235,12.7,12.7,31,0.00,CLR,SCT,0.00,WeatherDisplay:10.37,2013-08-31 02:10:00,
2013-08-30 19:15:00,77.7,44.7,29.99,SW,235,12.7,12.7,31,0.00,CLR,SCT,0.00,WeatherDisplay:10.37,2013-08-31 02:15:00,
2013-08-30 19:20:00,77.4,44.4,29.99,SW,235,12.7,12.7,31,0.00,CLR,SCT,0.00,WeatherDisplay:10.37,2013-08-31 02:20:00,
2013-08-30 19:25:00,77.0,44.0,29.99,SW,235,12.7,12.7,31,0.00,CLR,SCT,0.00,WeatherDisplay:10.37,2013-08-31 02:25:00,
2013-08-30 19:30:00,76.6,43.7,29.99,SW,235,12.7,12.7,31,0.00,CLR,SCT,0.00,WeatherDisplay:10.37,2013-08-31 02:30:00,
2013-08-30 19:35:00,76.3,43.4,29.99,SW,235,12.7,12.7,31,0.00,CLR,SCT,0.00,WeatherDisplay:10.37,2013-08-31 02:35:00,
2013-08-30 19:40:00,75.7,42.9,30.02,SW,235,12.7,12.7,31,0.00,CLR,SCT,0.00,WeatherDisplay:10.37,2013-08-31 02:40:00,
2013-08-30 19:45:00,75.4,42.6,30.02,SW,235,12.7,12.7,31,0.00,CLR,SCT,0.00,WeatherDisplay:10.37,2013-08-31 02:45:00,
2013-08-30 19:50:00,75.2,42.5,30.02,SW,235,12.7,12.7,31,0.00,CLR,SCT,0.00,WeatherDisplay:10.37,2013-08-31 02:50:00,
2013-08-30 19:55:00,74.7,42.8,30.02,SW,235,12.7,12.7,32,0.00,CLR,SCT,0.00,WeatherDisplay:10.37,2013-08-31 02:55:00,
2013-08-30 20:00:00,74.3,42.5,30.02,SW,235,12.7,12.7,32,0.00,CLR,SCT,0.00,WeatherDisplay:10.37,2013-08-31 03:00:00,
2013-08-30 20:05:00,73.8,42.0,30.02,SW,235,13.2,13.2,32,0.00,CLR,SCT,0.00,WeatherDisplay:10.37,2013-08-31 03:05:00,
2013-08-30 20:10:00,73.4,41.7,30.02,SW,235,13.2,13.2,32,0.00,CLR,SCT,0.00,WeatherDisplay:10.37,2013-08-31 03:10:00,
2013-08-30 20:15:00,72.9,42.1,30.02,SW,235,13.2,13.2,33,0.00,CLR,SCT,0.00,WeatherDisplay:10.37,2013-08-31 03:15:00,
2013-08-30 20:20:00,72.5,41.7,30.02,SW,235,13.2,13.2,33,0.00,CLR,SCT,0.00,WeatherDisplay:10.37,2013-08-31 03:20:00,
2013-08-30 20:25:00,72.3,41.6,30.02,SW,235,12.7,12.7,33,0.00,CLR,SCT,0.00,WeatherDisplay:10.37,2013-08-31 03:25:00,
2013-08-30 20:30:00,72.0,41.3,30.02,SW,235,12.7,12.7,33,0.00,CLR,SCT,0.00,WeatherDisplay:10.37,2013-08-31 03:30:00,
2013-08-30 20:35:00,71.8,41.1,30.02,SW,235,12.7,12.7,33,0.00,CLR,SCT,0.00,WeatherDisplay:10.37,2013-08-31 03:35:00,
2013-08-30 20:40:00,71.4,41.6,30.02,SW,235,12.7,12.7,34,0.00,CLR,SCT,0.00,WeatherDisplay:10.37,2013-08-31 03:40:00,
2013-08-30 20:45:00,71.2,41.4,30.02,SW,235,12.7,12.7,34,0.00,CLR,SCT,0.00,WeatherDisplay:10.37,2013-08-31 03:45:00,
2013-08-30 20:50:00,70.9,41.1,30.02,SW,235,12.7,12.7,34,0.00,CLR,SCT,0.00,WeatherDisplay:10.37,2013-08-31 03:50:00,
2013-08-30 20:55:00,70.7,40.9,30.05,SW,235,12.7,12.7,34,0.00,CLR,SCT,0.00,WeatherDisplay:10.37,2013-08-31 03:55:00,
2013-08-30 21:00:00,70.5,40.8,30.05,SW,235,12.7,12.7,34,0.00,CLR,SCT,0.00,WeatherDisplay:10.37,2013-08-31 04:00:00,
2013-08-30 21:01:00,70.5,40.8,30.05,SW,235,12.7,12.7,34,0.00,CLR,SCT,0.00,WeatherDisplay:10.37,2013-08-31 04:01:00,
2013-08-30 21:02:00,70.3,40.6,30.05,SW,235,13.2,13.2,34,0.00,CLR,SCT,0.00,WeatherDisplay:10.37,2013-08-31 04:02:00,
2013-08-30 21:07:00,70.2,40.5,30.05,SW,235,12.7,12.7,34,0.00,CLR,SCT,0.00,WeatherDisplay:10.37,2013-08-31 04:07:00,
2013-08-30 21:12:00,69.8,40.9,30.05,SW,235,13.2,13.2,35,0.00,CLR,SCT,0.00,WeatherDisplay:10.37,2013-08-31 04:12:00,
2013-08-30 21:17:00,69.4,40.6,30.05,SW,235,12.7,12.7,35,0.00,CLR,SCT,0.00,WeatherDisplay:10.37,2013-08-31 04:17:00,
2013-08-30 21:22:00,69.3,40.4,30.05,SW,235,12.7,12.7,35,0.00,CLR,SCT,0.00,WeatherDisplay:10.37,2013-08-31 04:22:00,
2013-08-30 21:27:00,69.1,41.0,30.05,SW,235,13.2,13.2,36,0.00,CLR,SCT,0.00,WeatherDisplay:10.37,2013-08-31 04:27:00,
2013-08-30 21:32:00,68.7,40.7,30.05,SW,235,12.7,12.7,36,0.00,CLR,SCT,0.00,WeatherDisplay:10.37,2013-08-31 04:32:00,
2013-08-30 21:37:00,68.5,40.5,30.05,SW,235,12.7,12.7,36,0.00,CLR,SCT,0.00,WeatherDisplay:10.37,2013-08-31 04:37:00,
2013-08-30 21:42:00,68.4,40.4,30.05,SW,235,12.7,12.7,36,0.00,CLR,SCT,0.00,WeatherDisplay:10.37,2013-08-31 04:42:00,
2013-08-30 21:47:00,68.2,40.9,30.05,SW,235,13.2,13.2,37,0.00,CLR,SCT,0.00,WeatherDisplay:10.37,2013-08-31 04:47:00,
2013-08-30 21:52:00,68.0,40.7,30.05,SW,235,13.2,13.2,37,0.00,CLR,SCT,0.00,WeatherDisplay:10.37,2013-08-31 04:52:00,
2013-08-30 21:57:00,67.8,41.3,30.05,SW,235,13.2,13.2,38,0.00,CLR,SCT,0.00,WeatherDisplay:10.37,2013-08-31 04:57:00,
2013-08-30 22:02:00,67.6,41.1,30.05,SW,235,13.2,13.2,38,0.00,CLR,SCT,0.00,WeatherDisplay:10.37,2013-08-31 05:02:00,
2013-08-30 22:07:00,67.5,41.0,30.05,SW,235,12.7,12.7,38,0.00,CLR,SCT,0.00,WeatherDisplay:10.37,2013-08-31 05:07:00,
2013-08-30 22:12:00,67.3,41.5,30.05,SW,235,12.7,12.7,39,0.00,CLR,SCT,0.00,WeatherDisplay:10.37,2013-08-31 05:12:00,
2013-08-30 22:17:00,67.1,41.3,30.05,SW,235,13.2,13.2,39,0.00,CLR,SCT,0.00,WeatherDisplay:10.37,2013-08-31 05:17:00,
2013-08-30 22:22:00,67.1,41.3,30.05,SW,235,12.7,12.7,39,0.00,CLR,SCT,0.00,WeatherDisplay:10.37,2013-08-31 05:22:00,
2013-08-30 22:27:00,66.9,41.8,30.05,SW,235,12.7,12.7,40,0.00,CLR,SCT,0.00,WeatherDisplay:10.37,2013-08-31 05:27:00,
2013-08-30 22:32:00,66.9,41.8,30.05,SW,235,12.7,12.7,40,0.00,CLR,SCT,0.00,WeatherDisplay:10.37,2013-08-31 05:32:00,
2013-08-30 22:37:00,66.7,41.6,30.05,SW,235,12.7,12.7,40,0.00,CLR,SCT,0.00,WeatherDisplay:10.37,2013-08-31 05:37:00,
2013-08-30 22:42:00,66.6,42.1,30.05,SW,235,13.2,13.2,41,0.00,CLR,SCT,0.00,WeatherDisplay:10.37,2013-08-31 05:42:00,
2013-08-30 22:47:00,66.4,42.0,30.05,SW,235,12.7,12.7,41,0.00,CLR,SCT,0.00,WeatherDisplay:10.37,2013-08-31 05:47:00,
2013-08-30 22:52:00,66.2,42.4,30.05,SW,235,12.7,12.7,42,0.00,CLR,SCT,0.00,WeatherDisplay:10.37,2013-08-31 05:52:00,
2013-08-30 22:57:00,66.0,42.9,30.05,SW,235,13.2,13.2,43,0.00,CLR,SCT,0.00,WeatherDisplay:10.37,2013-08-31 05:57:00,
2013-08-30 23:02:00,65.8,42.7,30.05,SW,235,12.7,12.7,43,0.00,CLR,SCT,0.00,WeatherDisplay:10.37,2013-08-31 06:02:00,
2013-08-30 23:07:00,65.5,43.0,30.05,SW,235,13.2,13.2,44,0.00,CLR,SCT,0.00,WeatherDisplay:10.37,2013-08-31 06:07:00,
2013-08-30 23:12:00,65.3,42.8,30.05,SW,235,13.2,13.2,44,0.00,CLR,SCT,0.00,WeatherDisplay:10.37,2013-08-31 06:12:00,
2013-08-30 23:17:00,65.1,42.7,30.05,SW,235,13.2,13.2,44,0.00,CLR,SCT,0.00,WeatherDisplay:10.37,2013-08-31 06:17:00,
2013-08-30 23:22:00,64.9,43.1,30.05,SW,235,12.7,12.7,45,0.00,CLR,SCT,0.00,WeatherDisplay:10.37,2013-08-31 06:22:00,
2013-08-30 23:27:00,64.8,42.9,30.05,SW,235,12.7,12.7,45,0.00,CLR,SCT,0.00,WeatherDisplay:10.37,2013-08-31 06:27:00,
2013-08-30 23:32:00,64.4,42.6,30.05,SW,235,12.7,12.7,45,0.00,CLR,SCT,0.00,WeatherDisplay:10.37,2013-08-31 06:32:00,
2013-08-30 23:37:00,64.0,43.4,30.05,SW,235,12.7,12.7,47,0.00,CLR,SCT,0.00,WeatherDisplay:10.37,2013-08-31 06:37:00,
2013-08-30 23:42:00,63.7,43.1,30.05,SW,235,12.7,12.7,47,0.00,CLR,SCT,0.00,WeatherDisplay:10.37,2013-08-31 06:42:00,
2013-08-30 23:47:00,63.5,43.4,30.05,SW,235,12.7,12.7,48,0.00,CLR,SCT,0.00,WeatherDisplay:10.37,2013-08-31 06:47:00,
2013-08-30 23:52:00,63.3,43.8,30.05,SW,235,12.7,12.7,49,0.00,CLR,SCT,0.00,WeatherDisplay:10.37,2013-08-31 06:52:00,
2013-08-30 23:57:00,63.1,44.2,30.05,SW,235,12.7,12.7,50,0.00,CLR,SCT,0.00,WeatherDisplay:10.37,2013-08-31 06:57:00,